owner,sensor,date,latitude,longitude,vertical_datum,sea_water_practical_salinity,qcFlag 
TABS,ioos:station:wmo:42044:1,2015-03-16T00:00:00Z,26.1914,-97.0507,2.0,0.01,11111222 
TABS,ioos:station:wmo:42044:1,2015-03-16T00:30:00Z,26.1914,-97.0507,2.0,0.01,11111222 
TABS,ioos:station:wmo:42044:1,2015-03-16T01:00:00Z,26.1914,-97.0507,2.0,0.01,11111222 
TABS,ioos:station:wmo:42044:1,2015-03-16T01:30:00Z,26.1914,-97.0507,2.0,0.01,11111222 
TABS,ioos:station:wmo:42044:1,2015-03-16T02:00:00Z,26.1914,-97.0507,2.0,0.01,11111222 
TABS,ioos:station:wmo:42044:1,2015-03-16T02:30:00Z,26.1914,-97.0507,2.0,31.51,11111222 
TABS,ioos:station:wmo:42044:1,2015-03-16T03:00:00Z,26.1914,-97.0507,2.0,31.56,11111222 
TABS,ioos:station:wmo:42044:1,2015-03-16T03:30:00Z,26.1914,-97.0507,2.0,31.6,11111222 
TABS,ioos:station:wmo:42044:1,2015-03-16T04:00:00Z,26.1914,-97.0507,2.0,31.66,11111222 
TABS,ioos:station:wmo:42044:1,2015-03-16T04:30:00Z,26.1914,-97.0507,2.0,31.69,11111222 
TABS,ioos:station:wmo:42044:1,2015-03-16T05:00:00Z,26.1914,-97.0507,2.0,31.8,11111222 
TABS,ioos:station:wmo:42044:1,2015-03-16T05:30:00Z,26.1914,-97.0507,2.0,31.86,11111222 
TABS,ioos:station:wmo:42044:1,2015-03-16T06:00:00Z,26.1914,-97.0507,2.0,31.95,11111222 
TABS,ioos:station:wmo:42044:1,2015-03-16T06:30:00Z,26.1914,-97.0507,2.0,32.03,11111222 
TABS,ioos:station:wmo:42044:1,2015-03-16T07:00:00Z,26.1914,-97.0507,2.0,32.1,11111222 
TABS,ioos:station:wmo:42044:1,2015-03-16T07:30:00Z,26.1914,-97.0507,2.0,32.19,11111222 
TABS,ioos:station:wmo:42044:1,2015-03-16T08:00:00Z,26.1914,-97.0507,2.0,32.27,11111222 
TABS,ioos:station:wmo:42044:1,2015-03-16T08:30:00Z,26.1914,-97.0507,2.0,32.4,11111222 
TABS,ioos:station:wmo:42044:1,2015-03-16T09:00:00Z,26.1914,-97.0507,2.0,32.55,11111222 
TABS,ioos:station:wmo:42044:1,2015-03-16T09:30:00Z,26.1914,-97.0507,2.0,32.72,11111222 
TABS,ioos:station:wmo:42044:1,2015-03-16T10:00:00Z,26.1914,-97.0507,2.0,32.83,11111222 
TABS,ioos:station:wmo:42044:1,2015-03-16T10:30:00Z,26.1914,-97.0507,2.0,33.06,11111222 
TABS,ioos:station:wmo:42044:1,2015-03-16T11:00:00Z,26.1914,-97.0507,2.0,33.13,11111222 
TABS,ioos:station:wmo:42044:1,2015-03-16T11:30:00Z,26.1914,-97.0507,2.0,33.01,11111222 
TABS,ioos:station:wmo:42044:1,2015-03-16T12:00:00Z,26.1914,-97.0507,2.0,33.04,11111222 
TABS,ioos:station:wmo:42044:1,2015-03-16T12:30:00Z,26.1914,-97.0507,2.0,33.01,11111222 
TABS,ioos:station:wmo:42044:1,2015-03-16T13:00:00Z,26.1914,-97.0507,2.0,33.07,11111222 
TABS,ioos:station:wmo:42044:1,2015-03-16T13:30:00Z,26.1914,-97.0507,2.0,33.24,11111222 
TABS,ioos:station:wmo:42044:1,2015-03-16T14:00:00Z,26.1914,-97.0507,2.0,33.23,11111222 
TABS,ioos:station:wmo:42044:1,2015-03-16T14:30:00Z,26.1914,-97.0507,2.0,33.13,11111222 
TABS,ioos:station:wmo:42044:1,2015-03-16T15:00:00Z,26.1914,-97.0507,2.0,32.85,11111222 
TABS,ioos:station:wmo:42044:1,2015-03-16T15:30:00Z,26.1914,-97.0507,2.0,32.97,11111222 
TABS,ioos:station:wmo:42044:1,2015-03-16T16:00:00Z,26.1914,-97.0507,2.0,33.06,11111222 
TABS,ioos:station:wmo:42044:1,2015-03-16T16:30:00Z,26.1914,-97.0507,2.0,33.14,11111222 
TABS,ioos:station:wmo:42044:1,2015-03-16T17:00:00Z,26.1914,-97.0507,2.0,33.4,11111222 
TABS,ioos:station:wmo:42044:1,2015-03-16T17:30:00Z,26.1914,-97.0507,2.0,33.44,11111222 
TABS,ioos:station:wmo:42044:1,2015-03-16T18:00:00Z,26.1914,-97.0507,2.0,33.5,11111222 
TABS,ioos:station:wmo:42044:1,2015-03-16T18:30:00Z,26.1914,-97.0507,2.0,33.4,11111222 
TABS,ioos:station:wmo:42044:1,2015-03-16T19:00:00Z,26.1914,-97.0507,2.0,33.37,11111222 
TABS,ioos:station:wmo:42044:1,2015-03-16T19:30:00Z,26.1914,-97.0507,2.0,33.32,11111222 
TABS,ioos:station:wmo:42044:1,2015-03-16T20:00:00Z,26.1914,-97.0507,2.0,33.28,11111222 
TABS,ioos:station:wmo:42044:1,2015-03-16T20:30:00Z,26.1914,-97.0507,2.0,33.19,11111222 
TABS,ioos:station:wmo:42044:1,2015-03-16T21:00:00Z,26.1914,-97.0507,2.0,33.11,11111222 
TABS,ioos:station:wmo:42044:1,2015-03-16T21:30:00Z,26.1914,-97.0507,2.0,33.1,11111222 
TABS,ioos:station:wmo:42044:1,2015-03-16T22:00:00Z,26.1914,-97.0507,2.0,33.11,11111222 
TABS,ioos:station:wmo:42044:1,2015-03-16T22:30:00Z,26.1914,-97.0507,2.0,33.12,11111222 
TABS,ioos:station:wmo:42044:1,2015-03-16T23:00:00Z,26.1914,-97.0507,2.0,33.09,11111222 
TABS,ioos:station:wmo:42044:1,2015-03-16T23:30:00Z,26.1914,-97.0507,2.0,33.1,11111222 
TABS,ioos:station:wmo:42044:1,2015-03-17T00:00:00Z,26.1914,-97.0507,2.0,33.13,11111222 
TABS,ioos:station:wmo:42044:1,2015-03-17T00:30:00Z,26.1914,-97.0507,2.0,33.1,11111222 
TABS,ioos:station:wmo:42044:1,2015-03-17T01:00:00Z,26.1914,-97.0507,2.0,33.14,11111222 
TABS,ioos:station:wmo:42044:1,2015-03-17T01:30:00Z,26.1914,-97.0507,2.0,33.13,11111222 
TABS,ioos:station:wmo:42044:1,2015-03-17T02:00:00Z,26.1914,-97.0507,2.0,33.14,11111222 
TABS,ioos:station:wmo:42044:1,2015-03-17T02:30:00Z,26.1914,-97.0507,2.0,33.14,11111222 
TABS,ioos:station:wmo:42044:1,2015-03-17T03:00:00Z,26.1914,-97.0507,2.0,33.13,11111222 
TABS,ioos:station:wmo:42044:1,2015-03-17T03:30:00Z,26.1914,-97.0507,2.0,33.1,11111222 
TABS,ioos:station:wmo:42044:1,2015-03-17T04:00:00Z,26.1914,-97.0507,2.0,33.1,11111222 
TABS,ioos:station:wmo:42044:1,2015-03-17T04:30:00Z,26.1914,-97.0507,2.0,33.15,11111222 
TABS,ioos:station:wmo:42044:1,2015-03-17T05:00:00Z,26.1914,-97.0507,2.0,33.14,11111222 
TABS,ioos:station:wmo:42044:1,2015-03-17T05:30:00Z,26.1914,-97.0507,2.0,33.12,11111222 
TABS,ioos:station:wmo:42044:1,2015-03-17T06:00:00Z,26.1914,-97.0507,2.0,33.1,11111222 
TABS,ioos:station:wmo:42044:1,2015-03-17T06:30:00Z,26.1914,-97.0507,2.0,33.05,11111222 
TABS,ioos:station:wmo:42044:1,2015-03-17T07:00:00Z,26.1914,-97.0507,2.0,33.05,11111222 
TABS,ioos:station:wmo:42044:1,2015-03-17T07:30:00Z,26.1914,-97.0507,2.0,33.05,11111222 
TABS,ioos:station:wmo:42044:1,2015-03-17T08:00:00Z,26.1914,-97.0507,2.0,33.05,11111222 
TABS,ioos:station:wmo:42044:1,2015-03-17T08:30:00Z,26.1914,-97.0507,2.0,33.12,11111222 
TABS,ioos:station:wmo:42044:1,2015-03-17T09:00:00Z,26.1914,-97.0507,2.0,33.28,11111222 
TABS,ioos:station:wmo:42044:1,2015-03-17T09:30:00Z,26.1914,-97.0507,2.0,33.43,11111222 
TABS,ioos:station:wmo:42044:1,2015-03-17T10:00:00Z,26.1914,-97.0507,2.0,33.27,11111222 
TABS,ioos:station:wmo:42044:1,2015-03-17T10:30:00Z,26.1914,-97.0507,2.0,33.51,11111222 
TABS,ioos:station:wmo:42044:1,2015-03-17T11:00:00Z,26.1914,-97.0507,2.0,33.62,11111222 
TABS,ioos:station:wmo:42044:1,2015-03-17T11:30:00Z,26.1914,-97.0507,2.0,33.66,11111222 
TABS,ioos:station:wmo:42044:1,2015-03-17T12:00:00Z,26.1914,-97.0507,2.0,33.72,11111222 
TABS,ioos:station:wmo:42044:1,2015-03-17T12:30:00Z,26.1914,-97.0507,2.0,33.78,11111222 
TABS,ioos:station:wmo:42044:1,2015-03-17T13:00:00Z,26.1914,-97.0507,2.0,33.83,11111222 
TABS,ioos:station:wmo:42044:1,2015-03-17T13:30:00Z,26.1914,-97.0507,2.0,33.94,11111222 
TABS,ioos:station:wmo:42044:1,2015-03-17T14:00:00Z,26.1914,-97.0507,2.0,33.95,11111222 
TABS,ioos:station:wmo:42044:1,2015-03-17T14:30:00Z,26.1914,-97.0507,2.0,33.93,11111222 
TABS,ioos:station:wmo:42044:1,2015-03-17T15:00:00Z,26.1914,-97.0507,2.0,33.92,11111222 
TABS,ioos:station:wmo:42044:1,2015-03-17T15:30:00Z,26.1914,-97.0507,2.0,33.97,11111222 
TABS,ioos:station:wmo:42044:1,2015-03-17T16:00:00Z,26.1914,-97.0507,2.0,34.01,11111222 
TABS,ioos:station:wmo:42044:1,2015-03-17T16:30:00Z,26.1914,-97.0507,2.0,34.05,11111222 
TABS,ioos:station:wmo:42044:1,2015-03-17T17:00:00Z,26.1914,-97.0507,2.0,34.02,11111222 
TABS,ioos:station:wmo:42044:1,2015-03-17T17:30:00Z,26.1914,-97.0507,2.0,33.97,11111222 
TABS,ioos:station:wmo:42044:1,2015-03-17T18:00:00Z,26.1914,-97.0507,2.0,33.96,11111222 
TABS,ioos:station:wmo:42044:1,2015-03-17T18:30:00Z,26.1914,-97.0507,2.0,33.99,11111222 
TABS,ioos:station:wmo:42044:1,2015-03-17T19:00:00Z,26.1914,-97.0507,2.0,33.96,11111222 
TABS,ioos:station:wmo:42044:1,2015-03-17T19:30:00Z,26.1914,-97.0507,2.0,33.95,11111222 
TABS,ioos:station:wmo:42044:1,2015-03-17T20:00:00Z,26.1914,-97.0507,2.0,33.93,11111222 
TABS,ioos:station:wmo:42044:1,2015-03-17T20:30:00Z,26.1914,-97.0507,2.0,34.01,11111222 
TABS,ioos:station:wmo:42044:1,2015-03-17T21:00:00Z,26.1914,-97.0507,2.0,33.94,11111222 
TABS,ioos:station:wmo:42044:1,2015-03-17T21:30:00Z,26.1914,-97.0507,2.0,33.88,11111222 
TABS,ioos:station:wmo:42044:1,2015-03-17T22:00:00Z,26.1914,-97.0507,2.0,33.52,11111222 
TABS,ioos:station:wmo:42044:1,2015-03-17T22:30:00Z,26.1914,-97.0507,2.0,33.45,11111222 
TABS,ioos:station:wmo:42044:1,2015-03-17T23:00:00Z,26.1914,-97.0507,2.0,33.42,11111222 
TABS,ioos:station:wmo:42044:1,2015-03-17T23:30:00Z,26.1914,-97.0507,2.0,33.42,11111222 
TABS,ioos:station:wmo:42044:1,2015-03-18T00:00:00Z,26.1914,-97.0507,2.0,33.45,11111222 
TABS,ioos:station:wmo:42044:1,2015-03-18T00:30:00Z,26.1914,-97.0507,2.0,33.48,11111222 
TABS,ioos:station:wmo:42044:1,2015-03-18T01:00:00Z,26.1914,-97.0507,2.0,33.47,11111222 
TABS,ioos:station:wmo:42044:1,2015-03-18T01:30:00Z,26.1914,-97.0507,2.0,33.45,11111222 
TABS,ioos:station:wmo:42044:1,2015-03-18T02:00:00Z,26.1914,-97.0507,2.0,33.42,11111222 
TABS,ioos:station:wmo:42044:1,2015-03-18T02:30:00Z,26.1914,-97.0507,2.0,33.46,11111222 
TABS,ioos:station:wmo:42044:1,2015-03-18T03:00:00Z,26.1914,-97.0507,2.0,33.38,11111222 
TABS,ioos:station:wmo:42044:1,2015-03-18T03:30:00Z,26.1914,-97.0507,2.0,33.44,11111222 
TABS,ioos:station:wmo:42044:1,2015-03-18T04:00:00Z,26.1914,-97.0507,2.0,33.45,11111222 
TABS,ioos:station:wmo:42044:1,2015-03-18T04:30:00Z,26.1914,-97.0507,2.0,33.42,11111222 
TABS,ioos:station:wmo:42044:1,2015-03-18T05:00:00Z,26.1914,-97.0507,2.0,33.4,11111222 
TABS,ioos:station:wmo:42044:1,2015-03-18T05:30:00Z,26.1914,-97.0507,2.0,33.38,11111222 
TABS,ioos:station:wmo:42044:1,2015-03-18T06:00:00Z,26.1914,-97.0507,2.0,33.37,11111222 
TABS,ioos:station:wmo:42044:1,2015-03-18T06:30:00Z,26.1914,-97.0507,2.0,33.38,11111222 
TABS,ioos:station:wmo:42044:1,2015-03-18T07:00:00Z,26.1914,-97.0507,2.0,33.32,11111222 
TABS,ioos:station:wmo:42044:1,2015-03-18T07:30:00Z,26.1914,-97.0507,2.0,33.29,11111222 
TABS,ioos:station:wmo:42044:1,2015-03-18T08:00:00Z,26.1914,-97.0507,2.0,33.21,11111222 
TABS,ioos:station:wmo:42044:1,2015-03-18T08:30:00Z,26.1914,-97.0507,2.0,33.2,11111222 
TABS,ioos:station:wmo:42044:1,2015-03-18T09:00:00Z,26.1914,-97.0507,2.0,33.19,11111222 
TABS,ioos:station:wmo:42044:1,2015-03-18T09:30:00Z,26.1914,-97.0507,2.0,33.13,11111222 
TABS,ioos:station:wmo:42044:1,2015-03-18T10:00:00Z,26.1914,-97.0507,2.0,33.11,11111222 
TABS,ioos:station:wmo:42044:1,2015-03-18T10:30:00Z,26.1914,-97.0507,2.0,33.12,11111222 
TABS,ioos:station:wmo:42044:1,2015-03-18T11:00:00Z,26.1914,-97.0507,2.0,33.12,11111222 
TABS,ioos:station:wmo:42044:1,2015-03-18T11:30:00Z,26.1914,-97.0507,2.0,33.12,11111222 
TABS,ioos:station:wmo:42044:1,2015-03-18T12:00:00Z,26.1914,-97.0507,2.0,32.89,11111222 
TABS,ioos:station:wmo:42044:1,2015-03-18T12:30:00Z,26.1914,-97.0507,2.0,32.76,11111222 
TABS,ioos:station:wmo:42044:1,2015-03-18T13:00:00Z,26.1914,-97.0507,2.0,32.33,11111222 
TABS,ioos:station:wmo:42044:1,2015-03-18T13:30:00Z,26.1914,-97.0507,2.0,32.24,11111222 
TABS,ioos:station:wmo:42044:1,2015-03-18T14:00:00Z,26.1914,-97.0507,2.0,32.13,11111222 
TABS,ioos:station:wmo:42044:1,2015-03-18T14:30:00Z,26.1914,-97.0507,2.0,31.84,11111222 
TABS,ioos:station:wmo:42044:1,2015-03-18T15:00:00Z,26.1914,-97.0507,2.0,32.02,11111222 
TABS,ioos:station:wmo:42044:1,2015-03-18T15:30:00Z,26.1914,-97.0507,2.0,31.86,11111222 
TABS,ioos:station:wmo:42044:1,2015-03-18T16:00:00Z,26.1914,-97.0507,2.0,31.9,11111222 
TABS,ioos:station:wmo:42044:1,2015-03-18T16:30:00Z,26.1914,-97.0507,2.0,31.94,11111222 
TABS,ioos:station:wmo:42044:1,2015-03-18T17:00:00Z,26.1914,-97.0507,2.0,31.87,11111222 
TABS,ioos:station:wmo:42044:1,2015-03-18T17:30:00Z,26.1914,-97.0507,2.0,31.84,11111222 
TABS,ioos:station:wmo:42044:1,2015-03-18T18:00:00Z,26.1914,-97.0507,2.0,31.72,11111222 
TABS,ioos:station:wmo:42044:1,2015-03-18T18:30:00Z,26.1914,-97.0507,2.0,31.76,11111222 
TABS,ioos:station:wmo:42044:1,2015-03-18T19:00:00Z,26.1914,-97.0507,2.0,31.8,11111222 
TABS,ioos:station:wmo:42044:1,2015-03-18T19:30:00Z,26.1914,-97.0507,2.0,31.76,11111222 
TABS,ioos:station:wmo:42044:1,2015-03-18T20:00:00Z,26.1914,-97.0507,2.0,31.58,11111222 
TABS,ioos:station:wmo:42044:1,2015-03-18T20:30:00Z,26.1914,-97.0507,2.0,31.4,11111222 
TABS,ioos:station:wmo:42044:1,2015-03-18T21:00:00Z,26.1914,-97.0507,2.0,31.5,11111222 
TABS,ioos:station:wmo:42044:1,2015-03-18T21:30:00Z,26.1914,-97.0507,2.0,31.32,11111222 
TABS,ioos:station:wmo:42044:1,2015-03-18T22:00:00Z,26.1914,-97.0507,2.0,30.93,11111222 
TABS,ioos:station:wmo:42044:1,2015-03-18T22:30:00Z,26.1914,-97.0507,2.0,30.97,11111222 
TABS,ioos:station:wmo:42044:1,2015-03-18T23:00:00Z,26.1914,-97.0507,2.0,31.06,11111222 
TABS,ioos:station:wmo:42044:1,2015-03-18T23:30:00Z,26.1914,-97.0507,2.0,31.17,11111222 
TABS,ioos:station:wmo:42044:1,2015-03-19T00:00:00Z,26.1914,-97.0507,2.0,31.29,11111222 
TABS,ioos:station:wmo:42044:1,2015-03-19T00:30:00Z,26.1914,-97.0507,2.0,31.13,11111222 
TABS,ioos:station:wmo:42044:1,2015-03-19T01:00:00Z,26.1914,-97.0507,2.0,31.14,11111222 
TABS,ioos:station:wmo:42044:1,2015-03-19T01:30:00Z,26.1914,-97.0507,2.0,31.11,11111222 
TABS,ioos:station:wmo:42044:1,2015-03-19T02:00:00Z,26.1914,-97.0507,2.0,31.09,11111222 
TABS,ioos:station:wmo:42044:1,2015-03-19T02:30:00Z,26.1914,-97.0507,2.0,31.0,11111222 
TABS,ioos:station:wmo:42044:1,2015-03-19T03:00:00Z,26.1914,-97.0507,2.0,31.0,11111222 
TABS,ioos:station:wmo:42044:1,2015-03-19T03:30:00Z,26.1914,-97.0507,2.0,31.02,11111222 
TABS,ioos:station:wmo:42044:1,2015-03-19T04:00:00Z,26.1914,-97.0507,2.0,31.03,11111222 
TABS,ioos:station:wmo:42044:1,2015-03-19T04:30:00Z,26.1914,-97.0507,2.0,31.02,11111222 
TABS,ioos:station:wmo:42044:1,2015-03-19T05:00:00Z,26.1914,-97.0507,2.0,31.02,11111222 
TABS,ioos:station:wmo:42044:1,2015-03-19T05:30:00Z,26.1914,-97.0507,2.0,31.02,11111222 
TABS,ioos:station:wmo:42044:1,2015-03-19T06:00:00Z,26.1914,-97.0507,2.0,31.01,11111222 
TABS,ioos:station:wmo:42044:1,2015-03-19T06:30:00Z,26.1914,-97.0507,2.0,31.01,11111222 
TABS,ioos:station:wmo:42044:1,2015-03-19T07:00:00Z,26.1914,-97.0507,2.0,31.01,11111222 
TABS,ioos:station:wmo:42044:1,2015-03-19T07:30:00Z,26.1914,-97.0507,2.0,31.0,11111222 
TABS,ioos:station:wmo:42044:1,2015-03-19T08:00:00Z,26.1914,-97.0507,2.0,31.0,11111222 
TABS,ioos:station:wmo:42044:1,2015-03-19T08:30:00Z,26.1914,-97.0507,2.0,30.99,11111222 
TABS,ioos:station:wmo:42044:1,2015-03-19T09:00:00Z,26.1914,-97.0507,2.0,30.99,11111222 
TABS,ioos:station:wmo:42044:1,2015-03-19T09:30:00Z,26.1914,-97.0507,2.0,30.99,11111222 
TABS,ioos:station:wmo:42044:1,2015-03-19T10:00:00Z,26.1914,-97.0507,2.0,30.98,11111222 
TABS,ioos:station:wmo:42044:1,2015-03-19T10:30:00Z,26.1914,-97.0507,2.0,30.99,11111222 
TABS,ioos:station:wmo:42044:1,2015-03-19T11:00:00Z,26.1914,-97.0507,2.0,30.99,11111222 
TABS,ioos:station:wmo:42044:1,2015-03-19T11:30:00Z,26.1914,-97.0507,2.0,31.0,11111222 
TABS,ioos:station:wmo:42044:1,2015-03-19T12:00:00Z,26.1914,-97.0507,2.0,30.98,11111222 
TABS,ioos:station:wmo:42044:1,2015-03-19T12:30:00Z,26.1914,-97.0507,2.0,30.98,11111222 
TABS,ioos:station:wmo:42044:1,2015-03-19T13:00:00Z,26.1914,-97.0507,2.0,30.97,11111222 
TABS,ioos:station:wmo:42044:1,2015-03-19T13:30:00Z,26.1914,-97.0507,2.0,30.96,11111222 
TABS,ioos:station:wmo:42044:1,2015-03-19T14:00:00Z,26.1914,-97.0507,2.0,30.96,11111222 
TABS,ioos:station:wmo:42044:1,2015-03-19T14:30:00Z,26.1914,-97.0507,2.0,30.95,11111222 
TABS,ioos:station:wmo:42044:1,2015-03-19T15:00:00Z,26.1914,-97.0507,2.0,30.95,11111222 
TABS,ioos:station:wmo:42044:1,2015-03-19T15:30:00Z,26.1914,-97.0507,2.0,30.95,11111222 
TABS,ioos:station:wmo:42044:1,2015-03-19T16:00:00Z,26.1914,-97.0507,2.0,30.95,11111222 
TABS,ioos:station:wmo:42044:1,2015-03-19T16:30:00Z,26.1914,-97.0507,2.0,30.95,11111222 
TABS,ioos:station:wmo:42044:1,2015-03-19T17:00:00Z,26.1914,-97.0507,2.0,30.95,11111222 
TABS,ioos:station:wmo:42044:1,2015-03-19T17:30:00Z,26.1914,-97.0507,2.0,30.94,11111222 
TABS,ioos:station:wmo:42044:1,2015-03-19T18:00:00Z,26.1914,-97.0507,2.0,30.94,11111222 
TABS,ioos:station:wmo:42044:1,2015-03-19T18:30:00Z,26.1914,-97.0507,2.0,30.95,11111222 
TABS,ioos:station:wmo:42044:1,2015-03-19T19:00:00Z,26.1914,-97.0507,2.0,30.96,11111222 
TABS,ioos:station:wmo:42044:1,2015-03-19T19:30:00Z,26.1914,-97.0507,2.0,30.95,11111222 
TABS,ioos:station:wmo:42044:1,2015-03-19T20:00:00Z,26.1914,-97.0507,2.0,30.96,11111222 
TABS,ioos:station:wmo:42044:1,2015-03-19T20:30:00Z,26.1914,-97.0507,2.0,30.95,11111222 
TABS,ioos:station:wmo:42044:1,2015-03-19T21:00:00Z,26.1914,-97.0507,2.0,30.96,11111222 
TABS,ioos:station:wmo:42044:1,2015-03-19T21:30:00Z,26.1914,-97.0507,2.0,30.98,11111222 
TABS,ioos:station:wmo:42044:1,2015-03-19T22:00:00Z,26.1914,-97.0507,2.0,30.99,11111222 
TABS,ioos:station:wmo:42044:1,2015-03-19T22:30:00Z,26.1914,-97.0507,2.0,30.99,11111222 
TABS,ioos:station:wmo:42044:1,2015-03-19T23:00:00Z,26.1914,-97.0507,2.0,30.99,11111222 
TABS,ioos:station:wmo:42044:1,2015-03-19T23:30:00Z,26.1914,-97.0507,2.0,31.0,11111222 
TABS,ioos:station:wmo:42044:1,2015-03-20T00:00:00Z,26.1914,-97.0507,2.0,31.01,11111222 
TABS,ioos:station:wmo:42044:1,2015-03-20T00:30:00Z,26.1914,-97.0507,2.0,31.01,11111222 
TABS,ioos:station:wmo:42044:1,2015-03-20T01:00:00Z,26.1914,-97.0507,2.0,31.02,11111222 
TABS,ioos:station:wmo:42044:1,2015-03-20T01:30:00Z,26.1914,-97.0507,2.0,31.03,11111222 
TABS,ioos:station:wmo:42044:1,2015-03-20T02:00:00Z,26.1914,-97.0507,2.0,31.03,11111222 
TABS,ioos:station:wmo:42044:1,2015-03-20T02:30:00Z,26.1914,-97.0507,2.0,31.03,11111222 
TABS,ioos:station:wmo:42044:1,2015-03-20T03:00:00Z,26.1914,-97.0507,2.0,31.03,11111222 
TABS,ioos:station:wmo:42044:1,2015-03-20T03:30:00Z,26.1914,-97.0507,2.0,31.03,11111222 
TABS,ioos:station:wmo:42044:1,2015-03-20T04:00:00Z,26.1914,-97.0507,2.0,31.06,11111222 
TABS,ioos:station:wmo:42044:1,2015-03-20T04:30:00Z,26.1914,-97.0507,2.0,31.05,11111222 
TABS,ioos:station:wmo:42044:1,2015-03-20T05:00:00Z,26.1914,-97.0507,2.0,31.04,11111222 
TABS,ioos:station:wmo:42044:1,2015-03-20T05:30:00Z,26.1914,-97.0507,2.0,31.04,11111222 
TABS,ioos:station:wmo:42044:1,2015-03-20T06:00:00Z,26.1914,-97.0507,2.0,31.06,11111222 
TABS,ioos:station:wmo:42044:1,2015-03-20T06:30:00Z,26.1914,-97.0507,2.0,31.1,11111222 
TABS,ioos:station:wmo:42044:1,2015-03-20T07:00:00Z,26.1914,-97.0507,2.0,31.1,11111222 
TABS,ioos:station:wmo:42044:1,2015-03-20T07:30:00Z,26.1914,-97.0507,2.0,31.1,11111222 
TABS,ioos:station:wmo:42044:1,2015-03-20T08:00:00Z,26.1914,-97.0507,2.0,31.12,11111222 
TABS,ioos:station:wmo:42044:1,2015-03-20T08:30:00Z,26.1914,-97.0507,2.0,31.12,11111222 
TABS,ioos:station:wmo:42044:1,2015-03-20T09:00:00Z,26.1914,-97.0507,2.0,31.13,11111222 
TABS,ioos:station:wmo:42044:1,2015-03-20T09:30:00Z,26.1914,-97.0507,2.0,31.14,11111222 
TABS,ioos:station:wmo:42044:1,2015-03-20T10:00:00Z,26.1914,-97.0507,2.0,31.2,11111222 
TABS,ioos:station:wmo:42044:1,2015-03-20T10:30:00Z,26.1914,-97.0507,2.0,31.18,11111222 
TABS,ioos:station:wmo:42044:1,2015-03-20T11:00:00Z,26.1914,-97.0507,2.0,31.2,11111222 
TABS,ioos:station:wmo:42044:1,2015-03-20T11:30:00Z,26.1914,-97.0507,2.0,31.17,11111222 
TABS,ioos:station:wmo:42044:1,2015-03-20T12:00:00Z,26.1914,-97.0507,2.0,31.15,11111222 
TABS,ioos:station:wmo:42044:1,2015-03-20T12:30:00Z,26.1914,-97.0507,2.0,31.17,11111222 
TABS,ioos:station:wmo:42044:1,2015-03-20T13:00:00Z,26.1914,-97.0507,2.0,31.11,11111222 
TABS,ioos:station:wmo:42044:1,2015-03-20T13:30:00Z,26.1914,-97.0507,2.0,31.12,11111222 
TABS,ioos:station:wmo:42044:1,2015-03-20T14:00:00Z,26.1914,-97.0507,2.0,31.16,11111222 
TABS,ioos:station:wmo:42044:1,2015-03-20T14:30:00Z,26.1914,-97.0507,2.0,31.17,11111222 
TABS,ioos:station:wmo:42044:1,2015-03-20T15:00:00Z,26.1914,-97.0507,2.0,31.17,11111222 
TABS,ioos:station:wmo:42044:1,2015-03-20T15:30:00Z,26.1914,-97.0507,2.0,31.11,11111222 
TABS,ioos:station:wmo:42044:1,2015-03-20T16:00:00Z,26.1914,-97.0507,2.0,31.1,11111222 
TABS,ioos:station:wmo:42044:1,2015-03-20T16:30:00Z,26.1914,-97.0507,2.0,31.13,11111222 
TABS,ioos:station:wmo:42044:1,2015-03-20T17:00:00Z,26.1914,-97.0507,2.0,31.17,11111222 
TABS,ioos:station:wmo:42044:1,2015-03-20T17:30:00Z,26.1914,-97.0507,2.0,31.16,11111222 
TABS,ioos:station:wmo:42044:1,2015-03-20T18:00:00Z,26.1914,-97.0507,2.0,31.12,11111222 
TABS,ioos:station:wmo:42044:1,2015-03-20T18:30:00Z,26.1914,-97.0507,2.0,31.11,11111222 
TABS,ioos:station:wmo:42044:1,2015-03-20T19:00:00Z,26.1914,-97.0507,2.0,31.12,11111222 
TABS,ioos:station:wmo:42044:1,2015-03-20T19:30:00Z,26.1914,-97.0507,2.0,31.1,11111222 
TABS,ioos:station:wmo:42044:1,2015-03-20T20:00:00Z,26.1914,-97.0507,2.0,31.09,11111222 
TABS,ioos:station:wmo:42044:1,2015-03-20T20:30:00Z,26.1914,-97.0507,2.0,31.07,11111222 
TABS,ioos:station:wmo:42044:1,2015-03-20T21:00:00Z,26.1914,-97.0507,2.0,31.11,11111222 
TABS,ioos:station:wmo:42044:1,2015-03-20T21:30:00Z,26.1914,-97.0507,2.0,31.11,11111222 
TABS,ioos:station:wmo:42044:1,2015-03-20T22:00:00Z,26.1914,-97.0507,2.0,31.1,11111222 
TABS,ioos:station:wmo:42044:1,2015-03-20T22:30:00Z,26.1914,-97.0507,2.0,31.11,11111222 
TABS,ioos:station:wmo:42044:1,2015-03-20T23:00:00Z,26.1914,-97.0507,2.0,31.2,11111222 
TABS,ioos:station:wmo:42044:1,2015-03-20T23:30:00Z,26.1914,-97.0507,2.0,31.12,11111222 
TABS,ioos:station:wmo:42044:1,2015-03-21T00:00:00Z,26.1914,-97.0507,2.0,31.11,11111222 
TABS,ioos:station:wmo:42044:1,2015-03-21T00:30:00Z,26.1914,-97.0507,2.0,31.09,11111222 
TABS,ioos:station:wmo:42044:1,2015-03-21T01:00:00Z,26.1914,-97.0507,2.0,31.14,11111222 
TABS,ioos:station:wmo:42044:1,2015-03-21T01:30:00Z,26.1914,-97.0507,2.0,31.1,11111222 
TABS,ioos:station:wmo:42044:1,2015-03-21T02:00:00Z,26.1914,-97.0507,2.0,31.13,11111222 
TABS,ioos:station:wmo:42044:1,2015-03-21T02:30:00Z,26.1914,-97.0507,2.0,31.02,11111222 
TABS,ioos:station:wmo:42044:1,2015-03-21T03:00:00Z,26.1914,-97.0507,2.0,31.18,11111222 
TABS,ioos:station:wmo:42044:1,2015-03-21T03:30:00Z,26.1914,-97.0507,2.0,31.34,11111222 
TABS,ioos:station:wmo:42044:1,2015-03-21T04:00:00Z,26.1914,-97.0507,2.0,31.29,11111222 
TABS,ioos:station:wmo:42044:1,2015-03-21T04:30:00Z,26.1914,-97.0507,2.0,31.22,11111222 
TABS,ioos:station:wmo:42044:1,2015-03-21T05:00:00Z,26.1914,-97.0507,2.0,31.27,11111222 
TABS,ioos:station:wmo:42044:1,2015-03-21T05:30:00Z,26.1914,-97.0507,2.0,31.31,11111222 
TABS,ioos:station:wmo:42044:1,2015-03-21T06:00:00Z,26.1914,-97.0507,2.0,31.35,11111222 
TABS,ioos:station:wmo:42044:1,2015-03-21T06:30:00Z,26.1914,-97.0507,2.0,31.35,11111222 
TABS,ioos:station:wmo:42044:1,2015-03-21T07:00:00Z,26.1914,-97.0507,2.0,31.31,11111222 
TABS,ioos:station:wmo:42044:1,2015-03-21T07:30:00Z,26.1914,-97.0507,2.0,31.42,11111222 
TABS,ioos:station:wmo:42044:1,2015-03-21T08:00:00Z,26.1914,-97.0507,2.0,31.36,11111222 
TABS,ioos:station:wmo:42044:1,2015-03-21T08:30:00Z,26.1914,-97.0507,2.0,31.22,11111222 
TABS,ioos:station:wmo:42044:1,2015-03-21T09:00:00Z,26.1914,-97.0507,2.0,31.67,11111222 
TABS,ioos:station:wmo:42044:1,2015-03-21T09:30:00Z,26.1914,-97.0507,2.0,31.19,11111222 
TABS,ioos:station:wmo:42044:1,2015-03-21T10:00:00Z,26.1914,-97.0507,2.0,31.33,11111222 
TABS,ioos:station:wmo:42044:1,2015-03-21T10:30:00Z,26.1914,-97.0507,2.0,31.36,11111222 
TABS,ioos:station:wmo:42044:1,2015-03-21T11:00:00Z,26.1914,-97.0507,2.0,31.34,11111222 
TABS,ioos:station:wmo:42044:1,2015-03-21T11:30:00Z,26.1914,-97.0507,2.0,31.32,11111222 
TABS,ioos:station:wmo:42044:1,2015-03-21T12:00:00Z,26.1914,-97.0507,2.0,31.4,11111222 
TABS,ioos:station:wmo:42044:1,2015-03-21T12:30:00Z,26.1914,-97.0507,2.0,31.34,11111222 
TABS,ioos:station:wmo:42044:1,2015-03-21T13:00:00Z,26.1914,-97.0507,2.0,31.23,11111222 
TABS,ioos:station:wmo:42044:1,2015-03-21T13:30:00Z,26.1914,-97.0507,2.0,31.24,11111222 
TABS,ioos:station:wmo:42044:1,2015-03-21T14:00:00Z,26.1914,-97.0507,2.0,31.21,11111222 
TABS,ioos:station:wmo:42044:1,2015-03-21T14:30:00Z,26.1914,-97.0507,2.0,31.16,11111222 
TABS,ioos:station:wmo:42044:1,2015-03-21T15:00:00Z,26.1914,-97.0507,2.0,31.18,11111222 
TABS,ioos:station:wmo:42044:1,2015-03-21T15:30:00Z,26.1914,-97.0507,2.0,31.17,11111222 